Date String (YYYY-MM-DD hh:mm:ss) UTC,Instrument flags,Ambient pressure (hPa),Sample flow (lpm),Bypass flow (lpm),Sample temperature (°C),Ambient temperature (°C),ASC tube jacket temperature (°C),LED temperature (°C),Box temperature (°C),Sample RH (%),Span deviation,Mass concentration (μg/m³),Mass concentration (μg/m³),Mass concentration (μg/m³)
DateTimeUTC,F1_M11,P_M11,Q1_M11,Q2_M11,T1_M11,T2_M11,T3_M11,T4_M11,T5_M11,U1_M11,ZSPAN_M11,X0_M11,X2_M11,X1_M11
2023-01-17 05:00:00,,0814.0,5.01,0.00,22.6,21.2,00.0,31.5,24.4,14.1,-000.4,0031.25,0010.91,0008.61
2023-01-17 05:01:00,,0814.0,5.00,0.00,22.6,21.2,00.0,31.5,24.5,14.1,-000.6,0029.10,0011.01,0008.70
2023-01-17 05:02:00,,0813.9,4.99,0.00,22.6,21.2,00.0,31.5,24.5,14.1,-000.5,0027.39,0011.02,0008.79
2023-01-17 05:03:00,,0814.0,5.00,0.00,22.6,21.2,00.0,31.5,24.5,14.1,-000.7,0026.65,0010.96,0008.87
2023-01-17 05:04:00,,0814.0,5.00,0.00,22.6,21.2,00.0,31.5,24.5,14.1,-000.5,0024.11,0010.88,0008.96
2023-01-17 05:05:00,,0814.1,4.99,0.00,22.6,21.2,00.0,31.5,24.4,14.2,-000.9,0023.19,0010.82,0009.06
2023-01-17 05:06:00,,0814.0,5.01,0.00,22.6,21.2,00.0,31.5,24.4,14.3,-000.8,0022.70,0010.82,0009.18
2023-01-17 05:07:00,,0814.0,5.00,0.00,22.6,21.2,00.0,31.5,24.4,14.4,-000.9,0022.62,0010.80,0009.30
2023-01-17 05:08:00,,0814.1,5.00,0.00,22.6,21.2,00.0,31.5,24.4,14.5,-000.9,0021.47,0010.77,0009.44
2023-01-17 05:09:00,,0814.1,4.99,0.00,22.6,21.2,00.0,31.5,24.4,14.6,-001.0,0021.71,0010.88,0009.58
2023-01-17 05:10:00,,0814.0,5.01,0.00,22.6,21.2,00.0,31.5,24.4,14.7,-001.0,0021.62,0010.94,0009.72
2023-01-17 05:11:00,,0814.1,5.00,0.00,22.6,21.2,00.0,31.5,24.4,14.8,-001.0,0021.92,0011.05,0009.85
2023-01-17 05:12:00,,0814.2,5.01,0.00,22.6,21.2,00.0,31.4,24.4,14.9,-001.3,0021.87,0011.16,0010.00
2023-01-17 05:13:00,,0814.1,5.01,0.00,22.6,21.2,00.0,31.4,24.4,15.0,-001.3,0022.48,0011.33,0010.19
2023-01-17 05:14:00,,0814.1,5.01,0.00,22.6,21.2,00.0,31.4,24.4,15.1,-001.4,0023.86,0011.54,0010.41
2023-01-17 05:15:00,,0814.4,4.99,0.00,22.6,21.1,00.0,31.4,24.4,15.1,-001.0,0023.77,0011.80,0010.63
2023-01-17 05:16:00,,0814.1,4.99,0.00,22.6,21.1,00.0,31.4,24.4,15.2,-001.0,0023.55,0012.08,0010.90
2023-01-17 05:17:00,,0814.2,4.99,0.00,22.6,21.1,00.0,31.4,24.4,15.2,-000.7,0024.04,0012.36,0011.20
2023-01-17 05:18:00,,0814.4,5.01,0.00,22.6,21.5,00.0,31.4,24.5,15.2,-000.6,0024.14,0012.65,0011.45
2023-01-17 05:19:00,,0814.3,5.00,0.00,22.7,22.4,00.0,31.4,24.7,15.1,-001.0,0023.70,0012.94,0011.69
2023-01-17 05:20:00,,0814.6,5.00,0.00,22.8,22.9,00.0,31.4,24.9,15.0,-001.2,0023.23,0013.19,0011.96
2023-01-17 05:21:00,,0814.4,5.00,0.00,22.8,22.6,00.0,31.5,24.8,15.0,-001.4,0023.61,0013.47,0012.22
2023-01-17 05:22:00,,0814.4,4.99,0.00,22.8,22.3,00.0,31.5,24.8,15.0,-001.6,0024.26,0013.69,0012.45
2023-01-17 05:23:00,,0814.4,5.01,0.00,22.8,22.0,00.0,31.5,24.7,15.0,-001.7,0025.06,0013.89,0012.65
2023-01-17 05:24:00,,0814.4,5.00,0.00,22.8,21.8,00.0,31.5,24.6,15.1,-001.9,0024.91,0014.08,0012.81
2023-01-17 05:25:00,,0814.4,5.00,0.00,22.8,21.6,00.0,31.6,24.6,15.1,-001.8,0023.48,0014.18,0012.96
2023-01-17 05:26:00,,0814.3,4.97,0.00,22.8,21.5,00.0,31.6,24.5,15.1,-001.9,0023.47,0014.25,0013.08
2023-01-17 05:27:00,,0814.3,5.01,0.00,22.7,21.4,00.0,31.6,24.5,15.1,-001.9,0023.37,0014.26,0013.12
2023-01-17 05:28:00,,0814.4,5.00,0.00,22.7,21.3,00.0,31.6,24.5,15.1,-001.9,0022.91,0014.23,0013.10
2023-01-17 05:29:00,,0814.4,5.00,0.00,22.7,21.3,00.0,31.6,24.5,15.2,-002.0,0022.68,0014.22,0013.13
2023-01-17 05:30:00,,0814.2,5.00,0.00,22.7,21.3,00.0,31.6,24.5,15.3,-002.3,0023.73,0014.25,0013.17
2023-01-17 05:31:00,,0814.4,5.00,0.00,22.7,21.3,00.0,31.6,24.5,15.3,-002.1,0024.11,0014.29,0013.18
2023-01-17 05:32:00,,0814.4,5.00,0.00,22.7,21.3,00.0,31.6,24.5,15.3,-001.7,0023.42,0014.28,0013.23
2023-01-17 05:33:00,,0814.3,5.01,0.00,22.7,21.3,00.0,31.6,24.5,15.3,-001.4,0022.69,0014.32,0013.26
2023-01-17 05:34:00,,0814.5,4.99,0.00,22.7,21.3,00.0,31.6,24.4,15.3,-001.3,0022.45,0014.39,0013.33
2023-01-17 05:35:00,,0814.1,5.00,0.00,22.7,21.3,00.0,31.5,24.4,15.3,-001.3,0022.33,0014.41,0013.37
2023-01-17 05:36:00,,0814.2,4.99,0.00,22.7,21.3,00.0,31.5,24.4,15.3,-001.5,0022.61,0014.47,0013.43
2023-01-17 05:37:00,,0814.2,5.00,0.00,22.6,21.3,00.0,31.5,24.4,15.3,-001.5,0023.30,0014.57,0013.51
2023-01-17 05:38:00,,0814.4,5.00,0.00,22.6,21.3,00.0,31.5,24.5,15.3,-001.2,0023.48,0014.64,0013.62
2023-01-17 05:39:00,,0814.2,4.99,0.00,22.6,21.3,00.0,31.5,24.5,15.3,-001.4,0023.66,0014.80,0013.74
2023-01-17 05:40:00,,0814.4,4.99,0.00,22.6,21.3,00.0,31.5,24.5,15.3,-001.5,0023.63,0014.90,0013.83
2023-01-17 05:41:00,,0814.3,4.98,0.00,22.6,21.3,00.0,31.5,24.4,15.3,-001.5,0022.67,0014.94,0013.88
2023-01-17 05:42:00,,0814.1,5.03,0.00,22.6,21.3,00.0,31.5,24.4,15.2,-001.5,0022.17,0014.91,0013.89
2023-01-17 05:43:00,,0814.1,4.98,0.00,22.6,21.2,00.0,31.5,24.3,15.3,-001.8,0023.18,0015.00,0013.91
2023-01-17 05:44:00,,0814.2,4.97,0.00,22.6,21.2,00.0,31.5,24.3,15.3,-002.1,0023.40,0015.02,0013.96
2023-01-17 05:45:00,,0814.2,5.00,0.00,22.6,21.2,00.0,31.5,24.3,15.4,-001.8,0022.97,0015.01,0014.00
2023-01-17 05:46:00,,0814.2,5.01,0.00,22.6,21.1,00.0,31.5,24.3,15.5,-001.6,0023.10,0015.09,0014.12
2023-01-17 05:47:00,,0814.2,5.02,0.00,22.5,21.1,00.0,31.5,24.3,15.5,-001.4,0024.32,0015.10,0014.13
2023-01-17 05:48:00,,0814.3,4.98,0.00,22.5,21.1,00.0,31.5,24.3,15.6,-001.4,0024.26,0015.10,0014.15
2023-01-17 05:49:00,,0814.2,4.98,0.00,22.5,21.1,00.0,31.5,24.2,15.6,-001.3,0023.96,0015.15,0014.18
2023-01-17 05:50:00,,0814.4,5.00,0.00,22.5,21.1,00.0,31.4,24.2,15.7,-001.5,0024.04,0015.21,0014.21
2023-01-17 05:51:00,,0814.3,5.01,0.00,22.5,21.1,00.0,31.4,24.2,15.7,-001.4,0024.53,0015.30,0014.26
2023-01-17 05:52:00,,0814.2,5.01,0.00,22.5,21.1,00.0,31.4,24.1,15.8,-001.5,0024.47,0015.40,0014.36
2023-01-17 05:53:00,,0814.3,5.00,0.00,22.5,21.0,00.0,31.4,24.1,15.8,-001.5,0024.66,0015.52,0014.46
2023-01-17 05:54:00,,0814.4,5.00,0.00,22.5,21.3,00.0,31.4,24.3,15.8,-001.4,0024.01,0015.53,0014.50
2023-01-17 05:55:00,,0814.5,5.00,0.00,22.6,22.0,00.0,31.4,24.5,15.8,-001.4,0024.61,0015.60,0014.55
2023-01-17 05:56:00,,0814.3,4.99,0.00,22.7,22.8,00.0,31.4,24.7,15.7,-001.6,0024.90,0015.71,0014.57
2023-01-17 05:57:00,,0814.6,5.00,0.00,22.7,22.7,00.0,31.4,24.7,15.6,-002.0,0025.09,0015.75,0014.52
2023-01-17 05:58:00,,0814.5,5.00,0.00,22.7,22.3,00.0,31.5,24.7,15.6,-002.0,0024.02,0015.77,0014.53
2023-01-17 05:59:00,,0814.3,5.01,0.00,22.7,22.1,00.0,31.5,24.6,15.6,-002.2,0023.93,0015.82,0014.56
